Time,TemperatureF,DewpointF,PressureIn,WindDirection,WindDirectionDegrees,WindSpeedMPH,WindSpeedGustMPH,Humidity,HourlyPrecipIn,Conditions,Clouds,dailyrainin,SoftwareType,DateUTC
2013-04-30 00:00:00,26.0,22.0,-100.00,North,-999,-999.0,-999.0,86,-99.99,,,-99.99,,2013-04-30 07:00:00,
2013-04-30 01:00:00,25.0,21.0,-100.00,North,-999,-999.0,-999.0,84,-99.99,,,-99.99,,2013-04-30 08:00:00,
2013-04-30 02:00:00,24.0,20.0,-100.00,North,-999,-999.0,-999.0,83,-99.99,,,-99.99,,2013-04-30 09:00:00,
2013-04-30 03:00:00,24.0,20.0,-100.00,North,-999,-999.0,-999.0,83,-99.99,,,-99.99,,2013-04-30 10:00:00,
2013-04-30 06:00:00,24.0,18.0,-100.00,North,-999,-999.0,-999.0,76,-99.99,,,-99.99,,2013-04-30 13:00:00,
2013-04-30 08:00:00,26.0,19.0,-100.00,North,-999,-999.0,-999.0,74,-99.99,,,-99.99,,2013-04-30 15:00:00,
2013-04-30 09:00:00,26.0,19.0,-100.00,North,-999,-999.0,-999.0,76,-99.99,,,-99.99,,2013-04-30 16:00:00,
2013-04-30 10:00:00,28.0,20.0,-100.00,North,-999,-999.0,-999.0,72,-99.99,,,-99.99,,2013-04-30 17:00:00,
2013-04-30 11:00:00,29.0,19.0,-100.00,North,-999,-999.0,-999.0,67,-99.99,,,-99.99,,2013-04-30 18:00:00,
2013-04-30 14:00:00,35.0,21.0,-100.00,North,-999,-999.0,-999.0,56,-99.99,,,-99.99,,2013-04-30 21:00:00,
2013-04-30 15:00:00,33.0,20.0,-100.00,North,-999,-999.0,-999.0,58,-99.99,,,-99.99,,2013-04-30 22:00:00,
2013-04-30 16:00:00,35.0,22.0,-100.00,North,-999,-999.0,-999.0,58,-99.99,,,-99.99,,2013-04-30 23:00:00,
2013-04-30 17:00:00,38.0,22.0,-100.00,North,-999,-999.0,-999.0,53,-99.99,,,-99.99,,2013-05-01 00:00:00,
2013-04-30 17:52:00,38.0,22.0,-100.00,North,-999,-999.0,-999.0,53,-99.99,,,-99.99,,2013-05-01 00:52:00,
2013-04-30 18:00:00,37.0,22.0,-100.00,North,-999,-999.0,-999.0,54,-99.99,,,-99.99,,2013-05-01 01:00:00,
2013-04-30 19:00:00,35.0,21.0,-100.00,North,-999,-999.0,-999.0,56,-99.99,,,-99.99,,2013-05-01 02:00:00,
2013-04-30 20:00:00,33.0,24.0,-100.00,North,-999,-999.0,-999.0,68,-99.99,,,-99.99,,2013-05-01 03:00:00,
2013-04-30 21:00:00,28.0,22.0,-100.00,North,-999,-999.0,-999.0,77,-99.99,,,-99.99,,2013-05-01 04:00:00,
2013-04-30 22:00:00,27.0,22.0,-100.00,North,-999,-999.0,-999.0,81,-99.99,,,-99.99,,2013-05-01 05:00:00,
2013-04-30 23:00:00,26.0,22.0,-100.00,North,-999,-999.0,-999.0,83,-99.99,,,-99.99,,2013-05-01 06:00:00,